Location: Allen Generating Plant
(35.0740°N, 90.1490°W)
Time: 08:36:34
(UTC+00:00)

Explorer 11/Cluster Stage 4 - Pass Details

Date: 15 November 2024
Orbit: 464 x 1202 km, 28.8° (Epoch: 06 December)

Event Time Altitude Azimuth Distance (km) Brightness Sun altitude
Exits shadow 10:52:02 31° 214° (SW) 1,096 7.1 -21.3°
Maximum altitude 10:53:14 37° 180° (S) 943 7.0 -21.0°
Drops below altitude 10° 10:57:02 10° 112° (ESE) 1,791 9.6 -20.2°
Sets 10:59:13 0° 104° (ESE) 2,607 10.9 -19.8°
